Location: Focicchia
(42.2496°N, 9.2935°E)
Time: 05:29:38
(UTC+00:00)

X-37B - Pass Details

Date: 08 August 2021
Orbit: 381 x 393 km, 45.0° (Epoch: 29 August)

Event Time Altitude Azimuth Distance (km) Brightness Sun altitude
Exits shadow 03:09:43 11° 288° (WNW) 1,355 3.0 -12.6°
Maximum altitude 03:12:41 50° 5° (N) 495 1.4 -12.2°
Drops below altitude 10° 03:15:45 10° 83° (E) 1,397 4.5 -11.7°
Sets 03:17:51 0° 88° (E) 2,250 5.5 -11.4°
